Theta_e
310 309 310 310 309 308 308 307 306 306 306 307 305 303 302 302 306 307 305 305 305 306 306 306 306 305 304 303 302 302 302 302 303 303 302 302 303 303 302 302 302 302 301
310 309 310 310 310 309 309 308 307 307 306 307 305 303 303 301 304 306 306 306 306 306 307 307 306 305 306 305 304 304 303 302 302 303 303 303 302 302 302 302 301 301 301
310 309 310 310 310 309 309 308 308 309 307 306 305 304 304 302 301 304 305 305 305 305 306 306 306 306 306 305 306 305 304 303 302 303 303 303 303 302 302 301 301 300 299
310 310 310 310 310 310 309 309 308 309 308 306 306 305 304 304 303 301 302 303 303 303 301 301 304 305 305 306 306 306 305 305 304 304 303 303 302 302 302 300 300 299 297
310 310 311 311 310 310 310 309 308 308 308 307 307 306 305 305 305 305 305 305 305 304 303 304 304 305 306 303 304 305 305 305 304 304 303 302 302 302 301 300 299 298 297
311 310 311 311 310 310 310 309 309 309 309 308 307 307 307 306 304 305 305 306 307 307 307 306 307 305 306 305 305 302 302 304 303 303 302 302 302 301 300 300 298 297 298
313 311 311 311 311 311 310 309 310 310 308 307 308 308 309 308 304 304 305 305 308 308 309 309 308 307 306 306 304 303 303 302 301 302 303 302 301 301 300 299 298 297 297
313 311 311 311 311 311 311 310 310 310 310 310 310 310 309 308 307 307 308 308 309 310 310 308 307 306 304 301 303 304 304 303 303 301 302 301 300 299 298 298 297 297 296
313 310 311 311 311 311 311 311 310 310 309 309 309 309 310 310 308 308 308 309 310 310 307 304 303 304 302 301 303 303 302 301 301 300 299 299 298 297 297 296 297 296 296
313 312 312 312 312 311 311 310 309 308 308 308 309 309 309 308 308 307 307 308 309 307 305 304 302 301 299 298 300 301 301 301 301 300 299 298 298 298 297 297 296 296 296
313 312 312 312 312 311 310 308 307 308 308 309 310 310 310 309 309 307 305 307 306 305 304 304 303 298 298 299 299 301 300 299 300 299 299 299 299 298 298 298 297 296 296
313 312 312 312 311 310 308 306 306 308 309 310 311 311 311 310 307 305 302 301 302 304 304 303 301 298 299 299 299 298 298 299 300 300 299 299 299 299 299 298 297 297 297
313 312 311 312 311 308 308 308 308 309 310 310 310 310 310 309 306 302 300 302 302 303 302 299 298 298 299 300 299 299 299 299 300 299 299 299 298 298 298 297 297 297 297
313 312 311 310 308 308 307 308 310 311 311 311 311 310 309 307 304 303 304 303 302 302 300 300 299 300 300 300 299 298 299 299 299 299 298 298 298 297 299 298 297 297 296
313 311 310 308 307 308 309 310 310 310 308 308 308 308 307 305 301 302 301 301 300 298 299 299 300 301 301 299 299 300 300 300 299 299 297 297 297 298 299 299 297 297 298
311 309 308 307 308 310 311 310 306 306 303 304 304 304 301 302 301 299 299 298 297 297 299 299 300 301 300 299 299 299 299 299 299 298 297 297 297 297 299 299 300 298 299
310 308 308 309 310 310 311 310 310 301 302 302 301 302 302 300 299 299 298 297 297 299 299 299 299 300 300 299 298 299 298 298 297 298 297 297 298 299 299 298 299 298 300
309 308 309 309 310 311 310 310 309 307 306 303 300 300 299 299 298 298 297 298 299 299 299 298 298 300 299 298 299 299 297 298 297 297 298 298 298 298 297 298 300 301 300
308 308 309 310 309 309 309 309 308 306 304 303 301 299 298 298 298 298 298 299 299 299 298 297 298 299 298 299 298 299 298 297 295 297 297 297 297 297 297 297 298 298 299
309 309 309 309 308 308 308 308 306 305 304 303 303 302 301 300 299 299 299 299 299 298 297 297 297 297 296 295 296 296 296 294 296 296 296 296 296 296 296 296 297 297 298
309 309 309 309 309 308 307 306 305 304 304 303 301 299 298 299 298 298 299 299 298 297 297 296 296 296 294 293 293 294 295 294 296 296 295 295 294 295 296 296 296 298 298
310 309 309 310 309 307 306 305 305 304 303 302 300 298 297 298 298 298 298 298 297 296 295 295 295 296 294 292 292 292 293 294 294 295 294 294 295 295 296 296 297 297 296
309 309 310 309 306 304 305 304 304 303 302 301 299 299 298 298 298 298 297 297 296 295 294 294 294 295 293 292 291 290 290 291 291 291 291 293 294 295 295 296 296 296 296
309 310 309 306 304 304 304 304 302 301 301 299 299 299 298 297 297 296 295 294 293 293 292 292 293 293 292 291 290 289 289 291 294 293 289 290 293 294 295 295 294 296 297
309 308 306 304 303 303 303 302 302 301 300 299 299 298 297 296 295 294 293 292 291 291 290 290 291 291 291 291 290 289 290 294 293 291 290 289 292 294 294 293 293 295 298
307 305 304 303 302 302 302 302 301 300 299 298 298 297 296 295 294 292 290 289 289 289 289 289 289 289 289 290 290 291 293 292 290 290 290 290 292 292 292 292 293 294 297
Wind_Speed
17 17 15 13 11 11 9 6 5 4 4 4 2 3 6 5 2 2 3 3 2 3 4 5 7 7 8 8 7 7 8 8 12 16 15 16 15 16 16 17 18 18 19
18 18 17 14 13 11 8 6 5 4 4 3 2 1 4 5 2 1 0 2 4 5 7 8 9 9 10 10 10 11 11 10 12 16 20 19 16 17 16 19 21 20 23
19 19 17 15 13 12 10 7 6 7 5 4 4 2 1 3 1 2 3 5 6 8 8 9 10 10 10 11 11 12 13 12 13 16 21 20 19 18 18 21 21 25 25
20 20 18 16 14 12 9 7 7 7 8 5 5 4 4 3 4 3 5 6 8 9 11 11 10 11 14 14 15 15 13 14 16 18 22 22 19 19 17 23 26 25 26
21 20 18 16 14 12 9 7 8 7 8 8 6 6 7 7 6 7 8 10 11 12 15 13 12 15 18 19 16 19 18 16 18 20 21 21 20 19 20 21 25 25 24
21 20 17 17 15 12 10 8 7 7 8 9 8 7 7 8 10 10 12 14 14 17 20 19 18 21 19 19 19 19 15 14 17 18 20 18 18 18 19 24 21 20 12
21 19 19 18 15 12 10 9 8 7 7 8 8 7 9 10 10 12 15 18 18 20 19 18 18 17 15 14 14 14 15 14 14 14 17 17 16 19 22 23 17 18 18
22 19 19 17 15 13 10 10 8 8 8 7 7 8 9 11 12 15 18 21 17 16 13 10 11 12 11 11 12 14 13 15 12 12 12 14 16 20 15 16 17 17 17
22 21 19 16 14 13 11 10 8 8 7 7 7 8 10 14 16 18 18 13 11 8 6 9 8 9 11 12 12 14 16 16 12 12 15 19 16 15 14 13 14 15 13
24 21 19 15 14 13 10 9 7 8 6 6 8 10 13 17 17 16 12 9 6 5 5 5 8 9 10 13 13 14 15 14 14 17 17 15 14 13 13 11 13 13 13
23 19 18 15 14 11 10 8 7 6 6 7 10 13 13 13 14 15 8 3 4 6 7 7 6 11 13 13 12 10 11 15 16 14 15 13 13 12 11 12 13 14 15
23 20 18 16 13 10 9 8 7 6 7 9 11 13 9 10 10 5 3 4 6 6 6 6 7 12 12 13 12 16 16 14 12 12 13 14 14 14 14 17 15 15 15
23 20 18 15 11 11 10 7 5 6 7 9 10 10 9 6 4 5 4 6 7 5 4 6 10 13 16 15 16 13 12 11 11 12 14 14 15 17 19 17 17 16 16
24 19 16 14 12 10 7 6 5 6 8 9 8 6 5 5 6 5 5 6 7 6 7 8 11 15 15 14 13 12 10 10 11 12 16 15 15 18 14 14 18 15 14
21 18 14 12 12 9 6 3 4 6 6 7 4 2 4 6 6 7 7 7 7 7 8 10 12 14 14 15 14 13 12 12 12 16 16 15 16 15 15 14 12 15 10
20 18 16 15 12 8 6 4 2 2 4 5 7 7 8 9 8 8 9 8 8 7 7 12 13 12 10 13 14 14 15 13 13 16 13 14 14 14 15 15 13 12 12
22 19 17 13 10 8 5 4 4 6 7 8 9 9 10 11 9 8 8 7 9 6 9 12 14 13 12 13 14 14 14 20 14 16 13 14 14 14 15 15 14 12 14
21 20 16 13 8 7 5 3 5 8 6 8 11 11 10 9 8 8 8 7 8 9 10 13 14 14 13 15 14 15 16 16 19 16 14 14 14 13 15 15 15 14 15
20 17 14 11 9 7 3 3 7 9 9 10 9 9 8 6 7 8 9 9 8 9 12 14 14 14 13 14 14 15 16 20 18 16 15 15 15 14 15 15 16 18 18
18 18 14 10 8 6 4 6 9 10 10 8 6 5 3 5 7 7 8 7 8 10 13 14 13 13 12 14 14 14 19 21 17 17 17 17 16 16 17 17 16 17 18
18 15 12 7 6 6 7 7 7 9 9 8 8 7 7 7 7 7 7 7 8 11 13 14 13 12 15 16 15 14 21 18 17 18 19 19 18 19 18 18 18 19 20
16 14 10 5 7 7 9 9 9 9 10 9 8 7 8 7 7 7 7 7 10 12 13 13 13 12 12 16 19 16 17 17 19 20 20 20 20 20 20 21 21 22 22
15 12 7 6 9 11 11 11 11 10 9 8 6 6 6 7 7 7 8 10 12 13 13 12 13 13 13 17 14 16 18 20 21 22 21 23 22 21 22 22 23 22 20
11 7 6 11 11 11 11 11 11 11 9 7 6 6 6 6 7 8 9 11 11 12 12 13 13 14 16 17 17 17 19 22 25 23 22 20 22 22 23 22 22 20 19
8 6 11 12 12 12 13 12 11 9 8 7 6 5 5 6 8 9 11 11 12 12 13 13 13 16 16 18 17 22 23 23 24 24 22 18 18 22 21 21 20 19 17
9 11 13 13 13 12 12 11 10 9 8 7 6 5 6 7 9 10 11 11 12 12 13 13 15 18 18 16 19 23 22 23 23 23 23 16 20 21 20 20 18 17 14
Wind_Direction
174 175 174 172 162 158 157 150 149 160 163 161 94 46 34 33 97 102 101 71 45 360 335 325 323 316 320 315 310 304 311 313 319 327 324 318 310 316 324 328 327 316 308
175 176 178 175 175 178 179 187 193 200 209 199 191 79 38 39 102 87 139 319 323 320 322 322 322 325 314 304 296 287 290 285 290 311 322 315 311 316 316 326 325 320 312
173 177 180 180 179 185 193 207 220 225 222 226 223 208 27 23 22 275 294 305 307 309 310 314 318 317 321 320 304 297 289 282 282 294 315 319 312 312 316 323 323 324 317
174 181 184 185 183 191 202 224 234 231 216 222 231 237 251 278 307 309 296 296 296 300 307 305 303 307 305 308 310 303 303 285 293 293 313 317 316 316 309 322 323 328 325
177 185 187 186 184 194 208 221 229 226 223 230 237 247 260 270 278 286 293 294 294 299 299 299 293 304 305 299 298 301 306 301 304 309 309 313 317 317 324 321 318 322 326
182 187 187 184 185 199 206 213 212 220 234 233 236 249 270 272 274 286 289 288 290 287 291 297 292 296 298 306 308 307 306 305 306 304 308 312 305 320 319 320 314 316 321
183 181 187 188 186 200 205 211 217 225 233 245 238 254 275 280 285 288 291 291 287 288 290 295 301 310 310 307 312 319 317 314 312 297 297 305 312 315 318 313 305 306 309
184 182 187 187 188 199 210 217 219 235 235 248 247 264 275 285 295 299 300 293 287 293 298 304 307 316 323 323 320 321 319 318 313 311 302 305 307 309 307 302 297 302 307
180 181 186 188 191 198 213 215 217 227 245 257 254 265 279 292 305 311 303 296 295 312 335 340 335 335 328 336 331 325 322 324 325 330 326 318 320 318 316 308 304 305 304
178 183 183 185 191 201 212 206 216 232 253 246 260 275 287 300 313 318 309 299 304 327 354 3 356 2 354 349 340 329 328 339 329 326 324 328 327 319 315 299 298 294 299
171 177 175 177 189 196 199 210 209 229 239 260 277 285 289 297 308 316 316 318 328 344 351 350 354 352 351 352 356 345 336 333 327 329 328 328 331 325 317 311 300 291 290
165 173 170 179 185 190 186 185 208 225 254 272 281 294 306 312 318 344 10 19 16 9 6 0 349 347 348 344 343 334 331 333 330 331 334 333 330 327 323 323 326 313 303
162 169 164 175 188 175 171 193 215 246 265 281 292 306 329 351 31 61 51 30 18 30 34 12 355 349 341 335 333 341 345 337 334 329 326 320 323 320 327 330 327 318 315
165 162 164 172 170 169 183 212 241 265 283 295 309 330 6 46 72 65 52 32 30 35 12 354 357 354 356 353 352 351 347 342 332 320 323 321 328 334 326 324 330 324 317
160 155 158 165 170 175 203 227 264 291 297 306 324 45 56 69 71 65 58 49 35 18 357 354 357 3 4 355 356 355 345 342 337 334 331 324 325 328 329 330 325 329 302
149 156 162 163 165 177 182 177 296 357 35 55 84 98 87 93 88 77 60 44 28 22 6 5 359 359 349 351 347 345 349 339 336 339 326 323 319 321 325 329 329 321 312
156 160 161 159 167 182 186 183 178 91 77 85 91 93 102 104 90 65 43 31 30 20 13 1 354 351 340 339 339 339 331 341 334 335 326 319 319 321 325 317 317 319 316
158 158 159 163 182 182 168 184 173 160 130 95 98 104 102 93 75 59 37 22 21 20 8 358 352 350 341 335 338 335 336 336 332 331 328 328 325 320 321 317 317 315 310
153 156 160 165 174 172 171 164 148 137 125 124 121 106 96 71 52 41 33 22 13 8 360 355 352 350 343 339 339 340 337 330 335 329 327 327 328 323 317 314 311 310 310
156 160 153 148 156 172 156 141 135 130 128 127 116 95 55 1 6 13 15 9 2 357 354 350 347 348 344 340 338 338 340 346 341 340 334 329 326 324 319 316 313 314 313
155 156 155 149 161 159 146 140 132 134 129 120 105 85 56 22 16 13 6 7 357 351 348 344 341 343 350 349 340 334 342 341 339 336 332 332 329 325 324 317 313 312 312
148 150 159 162 159 143 138 130 126 126 125 121 109 82 56 36 18 7 6 354 346 343 340 337 337 336 336 340 342 337 331 333 332 332 329 328 326 324 323 322 321 321 320
145 151 156 134 136 132 125 126 127 126 120 110 93 71 44 26 10 4 356 344 339 338 337 336 334 333 331 338 334 331 329 331 329 325 321 321 321 322 323 321 325 326 328
153 154 136 135 135 130 126 127 123 123 117 101 84 63 41 19 6 358 348 341 338 337 337 336 331 330 331 332 334 332 330 328 329 328 321 315 314 319 322 323 325 327 329
158 134 132 131 128 122 124 126 126 123 112 97 79 58 34 12 1 352 345 341 337 336 337 338 336 334 333 331 332 334 335 334 336 336 330 316 314 319 321 324 326 326 330
134 129 127 121 115 120 124 125 126 123 110 94 75 49 21 4 356 348 346 345 343 340 340 339 336 338 338 339 336 339 341 343 345 344 337 327 323 325 327 326 326 327 331